CZ-6A DEB, 55220

Orbit data source: Space-Track

CZ-6A DEB, 55220 is space debris in SSO originally from a launch on Fri, 11 Nov 2022 UTC launched from the Taiyaun Space Center, China (TSC). Debris objects in space refer to the collection of defunct objects orbiting the Earth. Examples of debris include non-operational satellites, rocket bodies, and fragments generated from explosions, collisions, or faulty payload assembly.

Loading next visibility...
Identifier
55220, 2022-151WM
Orbit
SSO
Country
Flag of CNCN / PRC
Related business
Manufacturer
SAST
Mission
Spacecraft
Bus & Motor
Unknown
Mass
Unknown
Launch date (UTC)
2022-11-11 (4 years ago)
Launch vehicle
Unknown
Launch site
Taiyaun Space Center, China (TSC)
Object type
Payload
Rocket body
Debris
Shape & HBR
Unknown shape, 0.1 m
Radar Cross Section
Medium (>0.1 m² and <1 m²)

Expand to show TLE details & history
Last TLE update: 2 days ago

TLE from 2 days ago
0 CZ-6A DEB
1 55220U 22151WM  26171.05962270  .00000423  00000-0  16658-3 0  9991
2 55220  98.7117 208.7462 0087067 305.9231  53.3895 14.32358407182617
Epoch: 2026-06-20T01:25Z
TLE epoch observation values (Epoch: 2026-06-20T01:25:51.401Z)
Latitude
-0.00003°
Longitude
-80.99764°
Altitude
749.947 km
Speed
7.499 km/s
True Right ascension
13h 54m 59s
True Declination
0° 00' 00"
Sunlit
Object was in full shadow at epoch
Visualization orbit readout
Latitude
Unknown
Longitude
Unknown
Altitude
Unknown
Speed
Unknown
Apparent Right ascension
Unknown
Apparent Declination
Unknown
Sunlit
N/A
Visualization observer readout
Local Sidereal Time
21:43:08
Azimuth
Unknown
Elevation
Unknown
Doppler factor
Unknown
Orbital elements
Apogee altitude
843.333 km
Perigee altitude
718.668 km
Semi-major axis
7,159.137 km
Eccentricity
0.00871
Inclination
98.7117°
RAAN
208.7462°
Arg. of periapsis
305.9231°
True anomaly
54.19558°
Mean anomaly
53.3895°
Eccentric anomaly
53.79202°
Mean motion
3.58304 °/min
Orbital period
100.47 mins
BSTAR
0.00016658
Loading maneuver chart data...
Computing Atmospheric mass density...
Loading historical data...
Loading historical data...
Loading historical data...
Loading historical data...
Loading historical data...
Loading historical data...
Loading historical data...

Documentation

Showing up to 5 results
|